| time (UTC) | temp F | wind direction | speed MPH | gust MPH | rain 1hr in | rain 24hr in | rain mn in | humidity % | barometer mb |
| 20260509234045 | 60 | 313 | 6.0 | 10.0 | 0.00 | 0.00 | 0.00 | 77 | 1015.1 |
| 20260509233544 | 60 | 304 | 5.0 | 9.0 | 0.00 | 0.00 | 0.00 | 77 | 1015.0 |
| 20260509233046 | 61 | 301 | 5.0 | 10.0 | 0.00 | 0.00 | 0.00 | 76 | 1015.0 |
| 20260509232546 | 61 | 298 | 5.0 | 11.0 | 0.00 | 0.00 | 0.00 | 76 | 1015.0 |
| 20260509232045 | 61 | 286 | 5.0 | 13.0 | 0.00 | 0.00 | 0.00 | 74 | 1015.1 |
| 20260509231559 | 62 | 299 | 6.0 | 13.0 | 0.00 | 0.00 | 0.00 | 75 | 1015.2 |
| 20260509231043 | 62 | 293 | 6.0 | 12.0 | 0.00 | 0.00 | 0.00 | 75 | 1015.1 |
| 20260509230543 | 62 | 286 | 6.0 | 12.0 | 0.00 | 0.00 | 0.00 | 75 | 1015.2 |
| 20260509230054 | 62 | 303 | 6.0 | 10.0 | 0.00 | 0.00 | 0.00 | 74 | 1015.2 |
| 20260509225544 | 62 | 298 | 6.0 | 11.0 | 0.00 | 0.00 | 0.00 | 75 | 1015.2 |
| 20260509225043 | 62 | 292 | 7.0 | 11.0 | 0.00 | 0.00 | 0.00 | 75 | 1015.2 |
| 20260509224557 | 62 | 290 | 6.0 | 11.0 | 0.00 | 0.00 | 0.00 | 75 | 1015.3 |
| 20260509224043 | 61 | 296 | 7.0 | 11.0 | 0.00 | 0.00 | 0.00 | 76 | 1015.3 |
| 20260509223543 | 62 | 292 | 6.0 | 10.0 | 0.00 | 0.00 | 0.00 | 76 | 1015.3 |
| 20260509223049 | 62 | 300 | 7.0 | 11.0 | 0.00 | 0.00 | 0.00 | 76 | 1015.3 |
| 20260509222544 | 62 | 288 | 6.0 | 11.0 | 0.00 | 0.00 | 0.00 | 76 | 1015.4 |
| 20260509222044 | 62 | 298 | 6.0 | 11.0 | 0.00 | 0.00 | 0.00 | 76 | 1015.4 |
| 20260509221551 | 62 | 294 | 6.0 | 11.0 | 0.00 | 0.00 | 0.00 | 76 | 1015.5 |
| 20260509221044 | 62 | 299 | 7.0 | 12.0 | 0.00 | 0.00 | 0.00 | 76 | 1015.4 |
| 20260509220543 | 62 | 301 | 7.0 | 12.0 | 0.00 | 0.00 | 0.00 | 76 | 1015.5 |
| 20260509220055 | 62 | 309 | 7.0 | 12.0 | 0.00 | 0.00 | 0.00 | 76 | 1015.5 |
| 20260509215545 | 62 | 286 | 7.0 | 12.0 | 0.00 | 0.00 | 0.00 | 76 | 1015.4 |
| 20260509215044 | 62 | 296 | 7.0 | 12.0 | 0.00 | 0.00 | 0.00 | 75 | 1015.4 |
| 20260509214554 | 62 | 299 | 7.0 | 13.0 | 0.00 | 0.00 | 0.00 | 75 | 1015.4 |
| 20260509214045 | 63 | 307 | 7.0 | 13.0 | 0.00 | 0.00 | 0.00 | 75 | 1015.6 |
| 20260509213543 | 63 | 294 | 7.0 | 12.0 | 0.00 | 0.00 | 0.00 | 74 | 1015.6 |
| 20260509213056 | 63 | 298 | 6.0 | 13.0 | 0.00 | 0.00 | 0.00 | 75 | 1015.7 |
| 20260509212546 | 63 | 302 | 7.0 | 13.0 | 0.00 | 0.00 | 0.00 | 75 | 1015.7 |
| 20260509212043 | 63 | 305 | 7.0 | 12.0 | 0.00 | 0.00 | 0.00 | 75 | 1015.7 |
| 20260509211551 | 63 | 312 | 6.0 | 12.0 | 0.00 | 0.00 | 0.00 | 74 | 1015.7 |
| 20260509211043 | 63 | 306 | 7.0 | 12.0 | 0.00 | 0.00 | 0.00 | 75 | 1015.8 |
| 20260509210544 | 64 | 298 | 6.0 | 11.0 | 0.00 | 0.00 | 0.00 | 74 | 1015.9 |
| 20260509210107 | 64 | 300 | 6.0 | 11.0 | 0.00 | 0.00 | 0.00 | 73 | 1016.0 |
| 20260509205543 | 64 | 311 | 5.0 | 11.0 | 0.00 | 0.00 | 0.00 | 73 | 1016.0 |
| 20260509205047 | 65 | 298 | 6.0 | 10.0 | 0.00 | 0.00 | 0.00 | 73 | 1016.1 |
| 20260509204559 | 65 | 301 | 6.0 | 10.0 | 0.00 | 0.00 | 0.00 | 73 | 1016.0 |
| 20260509204046 | 65 | 303 | 6.0 | 10.0 | 0.00 | 0.00 | 0.00 | 74 | 1016.1 |
| 20260509203542 | 65 | 298 | 6.0 | 10.0 | 0.00 | 0.00 | 0.00 | 74 | 1016.2 |
| 20260509203057 | 65 | 313 | 6.0 | 10.0 | 0.00 | 0.00 | 0.00 | 73 | 1016.2 |
| 20260509202544 | 65 | 317 | 6.0 | 10.0 | 0.00 | 0.00 | 0.00 | 74 | 1016.2 |
| 20260509202047 | 65 | 305 | 6.0 | 10.0 | 0.00 | 0.00 | 0.00 | 75 | 1016.2 |
| 20260509201556 | 64 | 299 | 6.0 | 10.0 | 0.00 | 0.00 | 0.00 | 75 | 1016.2 |
| 20260509201043 | 64 | 315 | 6.0 | 11.0 | 0.00 | 0.00 | 0.00 | 75 | 1016.3 |
| 20260509200547 | 64 | 342 | 5.0 | 11.0 | 0.00 | 0.00 | 0.00 | 75 | 1016.3 |
| 20260509200109 | 64 | 311 | 5.0 | 11.0 | 0.00 | 0.00 | 0.00 | 75 | 1016.2 |
| 20260509195549 | 64 | 303 | 6.0 | 11.0 | 0.00 | 0.00 | 0.00 | 75 | 1016.2 |
| 20260509195046 | 64 | 310 | 5.0 | 11.0 | 0.00 | 0.00 | 0.00 | 74 | 1016.3 |
| 20260509194559 | 64 | 298 | 5.0 | 9.0 | 0.00 | 0.00 | 0.00 | 75 | 1016.4 |
| 20260509194120 | 64 | 310 | 5.0 | 9.0 | 0.00 | 0.00 | 0.00 | 74 | 1016.4 |
| 20260509193543 | 64 | 311 | 5.0 | 9.0 | 0.00 | 0.00 | 0.00 | 75 | 1016.3 |
| 20260509193053 | 64 | 315 | 4.0 | 9.0 | 0.00 | 0.00 | 0.00 | 75 | 1016.4 |
| 20260509192544 | 64 | 298 | 4.0 | 8.0 | 0.00 | 0.00 | 0.00 | 74 | 1016.4 |
| 20260509192044 | 64 | 310 | 4.0 | 8.0 | 0.00 | 0.00 | 0.00 | 74 | 1016.3 |
| 20260509191547 | 64 | 312 | 4.0 | 8.0 | 0.00 | 0.00 | 0.00 | 75 | 1016.3 |
| 20260509191043 | 63 | 305 | 3.0 | 7.0 | 0.00 | 0.00 | 0.00 | 75 | 1016.4 |
| 20260509190543 | 63 | 297 | 3.0 | 7.0 | 0.00 | 0.00 | 0.00 | 75 | 1016.4 |
| 20260509190056 | 63 | 306 | 3.0 | 7.0 | 0.00 | 0.00 | 0.00 | 76 | 1016.4 |
| 20260509185544 | 63 | 312 | 3.0 | 7.0 | 0.00 | 0.00 | 0.00 | 75 | 1016.4 |
| 20260509185044 | 62 | 314 | 3.0 | 7.0 | 0.00 | 0.00 | 0.00 | 76 | 1016.4 |
| 20260509184624 | 62 | 307 | 2.0 | 5.0 | 0.00 | 0.00 | 0.00 | 75 | 1016.5 |
| 20260509184047 | 62 | 309 | 3.0 | 5.0 | 0.00 | 0.00 | 0.00 | 76 | 1016.4 |
| 20260509183543 | 62 | 310 | 2.0 | 5.0 | 0.00 | 0.00 | 0.00 | 76 | 1016.4 |
| 20260509183058 | 61 | 325 | 2.0 | 4.0 | 0.00 | 0.00 | 0.00 | 76 | 1016.4 |
| 20260509182545 | 61 | 326 | 2.0 | 5.0 | 0.00 | 0.00 | 0.00 | 77 | 1016.4 |
| 20260509182044 | 61 | 326 | 2.0 | 5.0 | 0.00 | 0.00 | 0.00 | 76 | 1016.4 |
| 20260509181551 | 60 | 327 | 2.0 | 5.0 | 0.00 | 0.00 | 0.00 | 77 | 1016.5 |
| 20260509181044 | 60 | 311 | 3.0 | 5.0 | 0.00 | 0.00 | 0.00 | 77 | 1016.4 |
| 20260509180545 | 60 | 309 | 2.0 | 5.0 | 0.00 | 0.00 | 0.00 | 78 | 1016.3 |
| 20260509180100 | 60 | 314 | 2.0 | 5.0 | 0.00 | 0.00 | 0.00 | 78 | 1016.4 |
| 20260509175545 | 59 | 324 | 2.0 | 4.0 | 0.00 | 0.00 | 0.00 | 79 | 1016.3 |
| 20260509175042 | 59 | 324 | 2.0 | 5.0 | 0.00 | 0.00 | 0.00 | 79 | 1016.4 |
| 20260509174551 | 59 | 324 | 2.0 | 5.0 | 0.00 | 0.00 | 0.00 | 79 | 1016.4 |
| 20260509174042 | 58 | 319 | 2.0 | 4.0 | 0.00 | 0.00 | 0.00 | 79 | 1016.4 |
| 20260509173543 | 58 | 303 | 2.0 | 4.0 | 0.00 | 0.00 | 0.00 | 79 | 1016.3 |
| 20260509173054 | 58 | 323 | 1.0 | 3.0 | 0.00 | 0.00 | 0.00 | 80 | 1016.3 |
| 20260509172544 | 57 | 323 | 2.0 | 3.0 | 0.00 | 0.00 | 0.00 | 81 | 1016.2 |
| 20260509172043 | 56 | 323 | 1.0 | 3.0 | 0.00 | 0.00 | 0.00 | 81 | 1016.3 |
| 20260509171549 | 56 | 323 | 1.0 | 4.0 | 0.00 | 0.00 | 0.00 | 83 | 1016.2 |
| 20260509171047 | 55 | 323 | 1.0 | 4.0 | 0.00 | 0.00 | 0.00 | 83 | 1016.1 |
| 20260509170546 | 55 | 323 | 2.0 | 4.0 | 0.00 | 0.00 | 0.00 | 84 | 1016.2 |
| 20260509170058 | 54 | 323 | 2.0 | 4.0 | 0.00 | 0.00 | 0.00 | 85 | 1016.1 |
| 20260509165543 | 53 | 323 | 2.0 | 4.0 | 0.00 | 0.00 | 0.00 | 85 | 1016.2 |
| 20260509165043 | 53 | 323 | 2.0 | 4.0 | 0.00 | 0.00 | 0.00 | 86 | 1016.3 |
| 20260509164551 | 52 | 323 | 2.0 | 4.0 | 0.00 | 0.00 | 0.00 | 86 | 1016.3 |
| 20260509164047 | 52 | 323 | 2.0 | 4.0 | 0.00 | 0.00 | 0.00 | 86 | 1016.2 |
| 20260509163545 | 52 | 323 | 2.0 | 4.0 | 0.00 | 0.00 | 0.00 | 86 | 1016.3 |
| 20260509163109 | 51 | 323 | 2.0 | 4.0 | 0.00 | 0.00 | 0.00 | 86 | 1016.2 |
| 20260509162546 | 51 | 323 | 2.0 | 4.0 | 0.00 | 0.00 | 0.00 | 86 | 1016.2 |
| 20260509162044 | 51 | 323 | 3.0 | 5.0 | 0.00 | 0.00 | 0.00 | 85 | 1016.2 |
| 20260509161550 | 51 | 323 | 3.0 | 5.0 | 0.00 | 0.00 | 0.00 | 84 | 1016.2 |
| 20260509161046 | 52 | 323 | 2.0 | 4.0 | 0.00 | 0.00 | 0.00 | 84 | 1016.2 |
| 20260509160544 | 52 | 315 | 2.0 | 4.0 | 0.00 | 0.00 | 0.00 | 83 | 1016.3 |
| 20260509160051 | 52 | 313 | 1.0 | 3.0 | 0.00 | 0.00 | 0.00 | 82 | 1016.3 |
| 20260509155543 | 52 | 313 | 2.0 | 3.0 | 0.00 | 0.00 | 0.00 | 81 | 1016.1 |
| 20260509155043 | 53 | 313 | 1.0 | 3.0 | 0.00 | 0.00 | 0.00 | 79 | 1016.1 |
| 20260509154554 | 54 | 313 | 1.0 | 3.0 | 0.00 | 0.00 | 0.00 | 77 | 1016.2 |
| 20260509154048 | 55 | 313 | 0.0 | 3.0 | 0.00 | 0.00 | 0.00 | 74 | 1016.2 |
| 20260509153544 | 56 | 0 | 1.0 | 3.0 | 0.00 | 0.00 | 0.00 | 72 | 1016.1 |
| 20260509153044 | 57 | 311 | 2.0 | 3.0 | 0.00 | 0.00 | 0.00 | 67 | 1016.2 |
| 20260509152544 | 59 | 0 | 0.0 | 2.0 | 0.00 | 0.00 | 0.00 | 68 | 1016.0 |
| 20260509152045 | 59 | 0 | 0.0 | 2.0 | 0.00 | 0.00 | 0.00 | 69 | 1016.0 |
| 20260509151557 | 58 | 0 | 0.0 | 2.0 | 0.00 | 0.00 | 0.00 | 69 | 1016.0 |
| 20260509151044 | 58 | 0 | 0.0 | 1.0 | 0.00 | 0.00 | 0.00 | 72 | 1015.9 |
| 20260509150545 | 57 | 0 | 0.0 | 1.0 | 0.00 | 0.00 | 0.00 | 73 | 1015.8 |
| 20260509150054 | 56 | 0 | 0.0 | 0.0 | 0.00 | 0.00 | 0.00 | 70 | 1015.8 |
| 20260509145544 | 55 | 0 | 0.0 | 2.0 | 0.00 | 0.01 | 0.00 | 71 | 1015.9 |
| 20260509145044 | 55 | 0 | 0.0 | 3.0 | 0.00 | 0.01 | 0.00 | 70 | 1015.7 |
| 20260509144553 | 54 | 309 | 0.0 | 3.0 | 0.00 | 0.01 | 0.00 | 70 | 1015.8 |
| 20260509144043 | 53 | 309 | 2.0 | 3.0 | 0.00 | 0.01 | 0.00 | 70 | 1015.7 |
| 20260509143543 | 52 | 309 | 2.0 | 3.0 | 0.00 | 0.01 | 0.00 | 75 | 1015.7 |
| 20260509143055 | 52 | 309 | 2.0 | 5.0 | 0.00 | 0.01 | 0.00 | 74 | 1015.6 |
| 20260509142543 | 52 | 309 | 2.0 | 5.0 | 0.00 | 0.01 | 0.00 | 74 | 1015.7 |
| 20260509142047 | 52 | 309 | 3.0 | 5.0 | 0.00 | 0.01 | 0.00 | 75 | 1015.7 |
| 20260509141559 | 53 | 302 | 3.0 | 5.0 | 0.00 | 0.01 | 0.00 | 73 | 1015.6 |
| 20260509141048 | 53 | 302 | 3.0 | 5.0 | 0.00 | 0.01 | 0.00 | 71 | 1015.4 |
| 20260509140544 | 55 | 306 | 3.0 | 5.0 | 0.00 | 0.01 | 0.00 | 67 | 1015.4 |
| 20260509135544 | 59 | 317 | 2.0 | 4.0 | 0.00 | 0.01 | 0.00 | 57 | 1015.3 |
| 20260509135044 | 60 | 318 | 2.0 | 6.0 | 0.00 | 0.01 | 0.00 | 51 | 1015.4 |
| 20260509134545 | 60 | 318 | 3.0 | 7.0 | 0.00 | 0.01 | 0.00 | 52 | 1015.3 |
| 20260509134043 | 60 | 313 | 4.0 | 7.0 | 0.00 | 0.01 | 0.00 | 53 | 1015.3 |
| 20260509133544 | 59 | 313 | 4.0 | 8.0 | 0.00 | 0.01 | 0.00 | 54 | 1015.3 |
| 20260509133051 | 58 | 318 | 4.0 | 8.0 | 0.00 | 0.01 | 0.00 | 56 | 1015.2 |
| 20260509132544 | 57 | 315 | 4.0 | 8.0 | 0.00 | 0.01 | 0.00 | 57 | 1015.3 |
| 20260509132043 | 57 | 315 | 4.0 | 8.0 | 0.00 | 0.01 | 0.00 | 58 | 1015.2 |
| 20260509131551 | 56 | 315 | 4.0 | 8.0 | 0.00 | 0.01 | 0.00 | 58 | 1015.2 |
| 20260509131043 | 54 | 313 | 5.0 | 8.0 | 0.00 | 0.01 | 0.00 | 62 | 1015.3 |
| 20260509130546 | 53 | 312 | 5.0 | 8.0 | 0.00 | 0.01 | 0.00 | 65 | 1015.3 |
| 20260509125545 | 54 | 313 | 3.0 | 6.0 | 0.00 | 0.01 | 0.00 | 68 | 1015.3 |
| 20260509125044 | 53 | 316 | 4.0 | 6.0 | 0.00 | 0.01 | 0.00 | 68 | 1015.2 |
| 20260509124552 | 51 | 311 | 4.0 | 5.0 | 0.00 | 0.01 | 0.00 | 72 | 1015.1 |
| 20260509124044 | 50 | 302 | 2.0 | 5.0 | 0.00 | 0.01 | 0.00 | 76 | 1015.1 |
| 20260509123544 | 50 | 298 | 3.0 | 5.0 | 0.00 | 0.01 | 0.00 | 78 | 1015.2 |
| 20260509123058 | 50 | 298 | 3.0 | 5.0 | 0.00 | 0.01 | 0.00 | 78 | 1015.2 |
| 20260509122543 | 51 | 309 | 3.0 | 4.0 | 0.00 | 0.01 | 0.00 | 76 | 1015.2 |
| 20260509122045 | 51 | 309 | 3.0 | 4.0 | 0.00 | 0.01 | 0.00 | 75 | 1015.2 |
| 20260509121554 | 52 | 309 | 3.0 | 5.0 | 0.00 | 0.01 | 0.00 | 73 | 1015.2 |
| 20260509121048 | 52 | 309 | 3.0 | 5.0 | 0.00 | 0.01 | 0.00 | 71 | 1015.2 |
| 20260509120544 | 53 | 308 | 3.0 | 5.0 | 0.00 | 0.01 | 0.00 | 70 | 1015.2 |
| 20260509120050 | 54 | 309 | 0.0 | 0.0 | 0.00 | 0.01 | 0.00 | 66 | 1015.3 |
| 20260509115543 | 55 | 0 | 0.0 | 0.0 | 0.00 | 0.01 | 0.00 | 64 | 1015.4 |
| 20260509115043 | 55 | 0 | 0.0 | 0.0 | 0.00 | 0.01 | 0.00 | 62 | 1015.4 |
| 20260509114550 | 56 | 0 | 0.0 | 0.0 | 0.00 | 0.01 | 0.00 | 61 | 1015.5 |
| 20260509114043 | 56 | 0 | 0.0 | 0.0 | 0.00 | 0.01 | 0.00 | 62 | 1015.4 |
| 20260509113543 | 56 | 0 | 0.0 | 0.0 | 0.00 | 0.01 | 0.00 | 62 | 1015.4 |
| 20260509113106 | 56 | 0 | 0.0 | 0.0 | 0.00 | 0.01 | 0.00 | 62 | 1015.4 |
| 20260509112545 | 56 | 0 | 0.0 | 0.0 | 0.00 | 0.01 | 0.00 | 61 | 1015.6 |
| 20260509112044 | 56 | 0 | 0.0 | 0.0 | 0.00 | 0.01 | 0.00 | 61 | 1015.5 |
| 20260509111548 | 55 | 0 | 0.0 | 3.0 | 0.00 | 0.01 | 0.00 | 62 | 1015.4 |
| 20260509111045 | 55 | 0 | 0.0 | 3.0 | 0.00 | 0.01 | 0.00 | 63 | 1015.4 |
| 20260509110547 | 54 | 23 | 2.0 | 3.0 | 0.00 | 0.01 | 0.00 | 64 | 1015.4 |
| 20260509110048 | 54 | 23 | 1.0 | 3.0 | 0.00 | 0.01 | 0.00 | 66 | 1015.4 |
| 20260509105543 | 53 | 0 | 0.0 | 2.0 | 0.00 | 0.01 | 0.00 | 68 | 1015.4 |
| 20260509105045 | 52 | 0 | 0.0 | 3.0 | 0.00 | 0.01 | 0.00 | 70 | 1015.4 |
| 20260509104556 | 51 | 314 | 1.0 | 6.0 | 0.00 | 0.01 | 0.00 | 70 | 1015.4 |
| 20260509104045 | 51 | 314 | 2.0 | 7.0 | 0.00 | 0.01 | 0.00 | 73 | 1015.6 |
| 20260509103543 | 51 | 304 | 4.0 | 7.0 | 0.00 | 0.01 | 0.00 | 74 | 1015.5 |
| 20260509103057 | 54 | 296 | 3.0 | 7.0 | 0.00 | 0.01 | 0.00 | 70 | 1015.6 |
| 20260509102544 | 56 | 321 | 3.0 | 4.0 | 0.00 | 0.01 | 0.00 | 63 | 1015.6 |
| 20260509102045 | 56 | 338 | 2.0 | 3.0 | 0.00 | 0.01 | 0.00 | 58 | 1015.6 |
| 20260509101549 | 56 | 340 | 0.0 | 2.0 | 0.00 | 0.01 | 0.00 | 59 | 1015.6 |
| 20260509101044 | 55 | 0 | 0.0 | 0.0 | 0.00 | 0.01 | 0.00 | 63 | 1015.7 |
| 20260509100544 | 55 | 0 | 0.0 | 0.0 | 0.00 | 0.01 | 0.00 | 64 | 1015.6 |
| 20260509100219 | 54 | 0 | 0.0 | 0.0 | 0.00 | 0.01 | 0.00 | 66 | 1015.6 |
| 20260509095544 | 53 | 0 | 0.0 | 0.0 | 0.00 | 0.01 | 0.00 | 67 | 1015.7 |
| 20260509095044 | 52 | 0 | 0.0 | 0.0 | 0.00 | 0.01 | 0.00 | 68 | 1015.7 |
| 20260509094554 | 52 | 0 | 0.0 | 2.0 | 0.00 | 0.01 | 0.00 | 70 | 1015.7 |
| 20260509094043 | 51 | 0 | 0.0 | 5.0 | 0.00 | 0.01 | 0.00 | 71 | 1015.8 |
| 20260509093543 | 51 | 0 | 0.0 | 5.0 | 0.00 | 0.01 | 0.00 | 71 | 1015.8 |
| 20260509093052 | 52 | 331 | 3.0 | 4.0 | 0.00 | 0.01 | 0.00 | 75 | 1015.9 |
| 20260509092547 | 53 | 316 | 2.0 | 4.0 | 0.00 | 0.01 | 0.00 | 71 | 1015.9 |
| 20260509092043 | 54 | 0 | 0.0 | 3.0 | 0.00 | 0.01 | 0.00 | 62 | 1015.9 |
| 20260509091603 | 53 | 0 | 0.0 | 5.0 | 0.00 | 0.01 | 0.00 | 62 | 1016.0 |
| 20260509091043 | 53 | 311 | 2.0 | 5.0 | 0.00 | 0.01 | 0.00 | 66 | 1016.0 |
| 20260509090543 | 53 | 311 | 3.0 | 5.0 | 0.00 | 0.01 | 0.00 | 67 | 1016.0 |
| 20260509090058 | 53 | 316 | 3.0 | 6.0 | 0.00 | 0.01 | 0.00 | 69 | 1016.0 |
| 20260509085543 | 54 | 316 | 2.0 | 8.0 | 0.00 | 0.01 | 0.00 | 67 | 1015.9 |
| 20260509085048 | 54 | 316 | 5.0 | 8.0 | 0.00 | 0.01 | 0.00 | 64 | 1015.9 |
| 20260509084550 | 55 | 316 | 4.0 | 8.0 | 0.00 | 0.01 | 0.00 | 64 | 1015.9 |
| 20260509084043 | 55 | 310 | 3.0 | 9.0 | 0.00 | 0.01 | 0.00 | 64 | 1016.0 |
| 20260509083543 | 55 | 316 | 4.0 | 9.0 | 0.00 | 0.01 | 0.00 | 65 | 1016.0 |
| 20260509083050 | 54 | 314 | 4.0 | 9.0 | 0.00 | 0.01 | 0.00 | 65 | 1016.1 |
| 20260509082544 | 54 | 331 | 4.0 | 8.0 | 0.00 | 0.01 | 0.00 | 66 | 1016.1 |
| 20260509082044 | 53 | 313 | 4.0 | 6.0 | 0.00 | 0.01 | 0.00 | 69 | 1016.1 |
| 20260509081559 | 51 | 315 | 4.0 | 6.0 | 0.00 | 0.01 | 0.00 | 74 | 1016.1 |
| 20260509081044 | 50 | 321 | 4.0 | 6.0 | 0.00 | 0.01 | 0.00 | 80 | 1016.2 |
| 20260509080543 | 49 | 320 | 4.0 | 8.0 | 0.00 | 0.01 | 0.00 | 81 | 1016.2 |
| 20260509080050 | 48 | 319 | 3.0 | 10.0 | 0.00 | 0.01 | 0.00 | 85 | 1016.2 |
| 20260509075543 | 48 | 319 | 5.0 | 10.0 | 0.00 | 0.01 | 0.00 | 85 | 1016.3 |
| 20260509075044 | 49 | 313 | 5.0 | 10.0 | 0.00 | 0.01 | 0.00 | 83 | 1016.3 |
| 20260509074549 | 50 | 317 | 4.0 | 8.0 | 0.00 | 0.01 | 0.00 | 80 | 1016.3 |
| 20260509074044 | 51 | 319 | 4.0 | 8.0 | 0.00 | 0.01 | 0.00 | 77 | 1016.3 |
| 20260509073544 | 52 | 312 | 3.0 | 8.0 | 0.00 | 0.01 | 0.00 | 75 | 1016.4 |
| 20260509073049 | 51 | 317 | 4.0 | 9.0 | 0.00 | 0.01 | 0.00 | 76 | 1016.4 |
| 20260509072543 | 50 | 312 | 4.0 | 9.0 | 0.00 | 0.01 | 0.00 | 81 | 1016.4 |
| 20260509072044 | 48 | 308 | 5.0 | 8.0 | 0.00 | 0.01 | 0.00 | 84 | 1016.4 |
| 20260509071552 | 48 | 321 | 4.0 | 8.0 | 0.00 | 0.01 | 0.00 | 86 | 1016.4 |
| 20260509071041 | 49 | 309 | 4.0 | 8.0 | 0.00 | 0.01 | 0.00 | 85 | 1016.5 |
| 20260509070544 | 49 | 313 | 4.0 | 9.0 | 0.00 | 0.01 | 0.00 | 84 | 1016.5 |
| 20260509070051 | 48 | 316 | 6.0 | 10.0 | 0.00 | 0.01 | 0.00 | 86 | 1016.5 |
| 20260509065543 | 48 | 319 | 6.0 | 11.0 | 0.00 | 0.01 | 0.01 | 86 | 1016.6 |
| 20260509065043 | 49 | 307 | 7.0 | 11.0 | 0.00 | 0.01 | 0.01 | 83 | 1016.6 |
| 20260509064550 | 50 | 306 | 8.0 | 11.0 | 0.00 | 0.01 | 0.01 | 79 | 1016.6 |
| 20260509064043 | 50 | 303 | 6.0 | 10.0 | 0.00 | 0.01 | 0.01 | 78 | 1016.7 |
| 20260509063544 | 50 | 311 | 4.0 | 8.0 | 0.00 | 0.01 | 0.01 | 81 | 1016.7 |
| 20260509063056 | 49 | 317 | 5.0 | 9.0 | 0.00 | 0.01 | 0.01 | 82 | 1016.6 |
| 20260509062545 | 50 | 314 | 6.0 | 10.0 | 0.00 | 0.01 | 0.01 | 82 | 1016.7 |
| 20260509062044 | 50 | 309 | 6.0 | 10.0 | 0.00 | 0.01 | 0.01 | 80 | 1016.8 |
| 20260509061606 | 52 | 306 | 6.0 | 10.0 | 0.00 | 0.01 | 0.01 | 78 | 1016.7 |
| 20260509061043 | 53 | 306 | 4.0 | 8.0 | 0.00 | 0.01 | 0.01 | 74 | 1016.8 |
| 20260509060541 | 54 | 315 | 5.0 | 8.0 | 0.00 | 0.01 | 0.01 | 70 | 1016.8 |
| 20260509060053 | 53 | 312 | 5.0 | 9.0 | 0.00 | 0.01 | 0.01 | 72 | 1016.8 |
| 20260509055546 | 51 | 314 | 5.0 | 9.0 | 0.00 | 0.01 | 0.01 | 81 | 1016.8 |
| 20260509055043 | 49 | 323 | 5.0 | 9.0 | 0.00 | 0.01 | 0.01 | 90 | 1016.9 |
| 20260509054558 | 48 | 313 | 4.0 | 7.0 | 0.00 | 0.01 | 0.01 | 95 | 1017.0 |
| 20260509054043 | 47 | 315 | 5.0 | 7.0 | 0.00 | 0.01 | 0.01 | 95 | 1017.0 |
| 20260509053544 | 46 | 320 | 4.0 | 6.0 | 0.00 | 0.01 | 0.01 | 95 | 1017.0 |
| 20260509053058 | 46 | 312 | 2.0 | 7.0 | 0.00 | 0.01 | 0.01 | 95 | 1017.0 |
| 20260509052543 | 46 | 315 | 3.0 | 8.0 | 0.00 | 0.01 | 0.01 | 95 | 1017.1 |
| 20260509052046 | 46 | 296 | 4.0 | 8.0 | 0.00 | 0.01 | 0.01 | 95 | 1017.1 |
| 20260509051553 | 46 | 296 | 4.0 | 8.0 | 0.00 | 0.01 | 0.01 | 95 | 1017.1 |
| 20260509051049 | 46 | 300 | 4.0 | 8.0 | 0.00 | 0.01 | 0.01 | 95 | 1017.1 |
| 20260509050544 | 46 | 297 | 4.0 | 7.0 | 0.00 | 0.01 | 0.01 | 95 | 1017.1 |
| 20260509050052 | 47 | 302 | 3.0 | 8.0 | 0.00 | 0.01 | 0.01 | 95 | 1017.0 |
| 20260509045544 | 47 | 304 | 4.0 | 8.0 | 0.00 | 0.01 | 0.01 | 95 | 1017.0 |
| 20260509045044 | 47 | 308 | 5.0 | 8.0 | 0.00 | 0.01 | 0.01 | 95 | 1016.9 |
| 20260509044556 | 47 | 309 | 5.0 | 8.0 | 0.00 | 0.01 | 0.01 | 95 | 1016.9 |
| 20260509044045 | 47 | 321 | 5.0 | 8.0 | 0.00 | 0.01 | 0.01 | 95 | 1016.9 |
| 20260509043547 | 47 | 306 | 4.0 | 8.0 | 0.00 | 0.01 | 0.01 | 95 | 1017.0 |
| 20260509043059 | 47 | 306 | 4.0 | 8.0 | 0.00 | 0.01 | 0.01 | 95 | 1016.9 |
| 20260509042543 | 47 | 304 | 5.0 | 9.0 | 0.00 | 0.01 | 0.01 | 95 | 1016.8 |
| 20260509042046 | 47 | 305 | 5.0 | 9.0 | 0.00 | 0.01 | 0.01 | 95 | 1016.8 |
| 20260509041551 | 47 | 302 | 5.0 | 9.0 | 0.00 | 0.01 | 0.01 | 94 | 1016.8 |
| 20260509041044 | 48 | 314 | 4.0 | 8.0 | 0.00 | 0.01 | 0.01 | 94 | 1016.8 |
| 20260509040543 | 48 | 309 | 4.0 | 8.0 | 0.00 | 0.01 | 0.01 | 95 | 1016.8 |
| 20260509040051 | 48 | 304 | 5.0 | 8.0 | 0.00 | 0.01 | 0.01 | 94 | 1016.8 |
| 20260509035543 | 48 | 302 | 4.0 | 8.0 | 0.00 | 0.01 | 0.01 | 94 | 1016.8 |
| 20260509035042 | 48 | 312 | 4.0 | 8.0 | 0.00 | 0.01 | 0.01 | 94 | 1016.7 |
| 20260509034602 | 48 | 313 | 4.0 | 8.0 | 0.00 | 0.01 | 0.01 | 94 | 1016.6 |
| 20260509034044 | 48 | 296 | 4.0 | 8.0 | 0.00 | 0.01 | 0.01 | 94 | 1016.6 |
| 20260509033545 | 48 | 306 | 4.0 | 8.0 | 0.00 | 0.01 | 0.01 | 94 | 1016.7 |
| 20260509033055 | 48 | 309 | 4.0 | 7.0 | 0.00 | 0.01 | 0.01 | 94 | 1016.6 |
| 20260509032543 | 49 | 323 | 4.0 | 8.0 | 0.00 | 0.01 | 0.01 | 93 | 1016.7 |
| 20260509032047 | 49 | 294 | 4.0 | 8.0 | 0.00 | 0.01 | 0.01 | 93 | 1016.6 |
| 20260509031553 | 49 | 304 | 3.0 | 7.0 | 0.00 | 0.01 | 0.01 | 93 | 1016.7 |
| 20260509031043 | 49 | 304 | 3.0 | 8.0 | 0.00 | 0.01 | 0.01 | 93 | 1016.6 |
| 20260509030543 | 49 | 309 | 3.0 | 8.0 | 0.00 | 0.01 | 0.01 | 92 | 1016.6 |
| 20260509030053 | 50 | 315 | 4.0 | 8.0 | 0.00 | 0.01 | 0.01 | 92 | 1016.6 |
| 20260509025543 | 50 | 311 | 4.0 | 7.0 | 0.00 | 0.01 | 0.01 | 91 | 1016.6 |
| 20260509025045 | 51 | 301 | 3.0 | 6.0 | 0.00 | 0.01 | 0.01 | 90 | 1016.6 |
| 20260509024553 | 51 | 306 | 3.0 | 7.0 | 0.00 | 0.01 | 0.01 | 90 | 1016.6 |
| 20260509024044 | 52 | 313 | 4.0 | 7.0 | 0.00 | 0.01 | 0.01 | 90 | 1016.6 |
| 20260509023543 | 52 | 304 | 3.0 | 7.0 | 0.00 | 0.01 | 0.01 | 89 | 1016.5 |
| 20260509023055 | 53 | 311 | 3.0 | 7.0 | 0.00 | 0.01 | 0.01 | 89 | 1016.6 |
| 20260509022545 | 53 | 300 | 3.0 | 5.0 | 0.00 | 0.01 | 0.01 | 89 | 1016.6 |
| 20260509022045 | 53 | 316 | 3.0 | 6.0 | 0.00 | 0.01 | 0.01 | 88 | 1016.6 |
| 20260509021554 | 53 | 312 | 3.0 | 7.0 | 0.00 | 0.01 | 0.01 | 88 | 1016.5 |
| 20260509021133 | 54 | 307 | 3.0 | 7.0 | 0.00 | 0.01 | 0.01 | 87 | 1016.6 |
| 20260509020544 | 54 | 310 | 3.0 | 7.0 | 0.00 | 0.01 | 0.01 | 86 | 1016.6 |
| 20260509020054 | 54 | 304 | 3.0 | 7.0 | 0.00 | 0.01 | 0.01 | 86 | 1016.6 |
| 20260509015543 | 55 | 315 | 3.0 | 7.0 | 0.00 | 0.01 | 0.01 | 86 | 1016.7 |
| 20260509015043 | 55 | 304 | 3.0 | 8.0 | 0.00 | 0.01 | 0.01 | 85 | 1016.6 |
| 20260509014553 | 56 | 300 | 4.0 | 8.0 | 0.00 | 0.01 | 0.01 | 84 | 1016.7 |
| 20260509014043 | 56 | 303 | 4.0 | 9.0 | 0.00 | 0.01 | 0.01 | 83 | 1016.7 |
| 20260509013548 | 57 | 304 | 5.0 | 9.0 | 0.00 | 0.01 | 0.01 | 83 | 1016.6 |
| 20260509013052 | 57 | 302 | 5.0 | 8.0 | 0.00 | 0.01 | 0.01 | 82 | 1016.6 |
| 20260509012545 | 57 | 300 | 4.0 | 7.0 | 0.00 | 0.01 | 0.01 | 82 | 1016.7 |
| 20260509012046 | 58 | 307 | 3.0 | 9.0 | 0.00 | 0.01 | 0.01 | 82 | 1016.7 |
| 20260509011553 | 58 | 298 | 5.0 | 9.0 | 0.00 | 0.01 | 0.01 | 82 | 1016.7 |
| 20260509011044 | 58 | 300 | 5.0 | 10.0 | 0.00 | 0.01 | 0.01 | 82 | 1016.8 |
| 20260509010543 | 58 | 306 | 5.0 | 10.0 | 0.00 | 0.01 | 0.01 | 82 | 1016.8 |
| 20260509010051 | 58 | 296 | 6.0 | 10.0 | 0.00 | 0.01 | 0.01 | 82 | 1016.8 |
| 20260509005543 | 58 | 300 | 5.0 | 10.0 | 0.00 | 0.01 | 0.01 | 82 | 1016.8 |
| 20260509005044 | 58 | 303 | 6.0 | 9.0 | 0.00 | 0.01 | 0.01 | 82 | 1016.7 |
| 20260509004549 | 58 | 306 | 4.0 | 9.0 | 0.00 | 0.01 | 0.01 | 82 | 1016.8 |
| 20260509004044 | 58 | 297 | 5.0 | 10.0 | 0.00 | 0.01 | 0.01 | 82 | 1016.9 |
| 20260509003544 | 58 | 304 | 4.0 | 10.0 | 0.00 | 0.01 | 0.01 | 82 | 1017.0 |
| 20260509003048 | 58 | 296 | 6.0 | 10.0 | 0.00 | 0.01 | 0.01 | 82 | 1016.9 |
| 20260509002543 | 58 | 302 | 7.0 | 11.0 | 0.00 | 0.01 | 0.01 | 82 | 1017.0 |
| 20260509002043 | 58 | 308 | 6.0 | 11.0 | 0.00 | 0.01 | 0.01 | 81 | 1017.0 |
| 20260509001549 | 58 | 298 | 6.0 | 11.0 | 0.00 | 0.01 | 0.01 | 80 | 1017.1 |
| 20260509001044 | 59 | 294 | 7.0 | 10.0 | 0.00 | 0.01 | 0.01 | 80 | 1017.0 |
| 20260509000543 | 59 | 302 | 5.0 | 11.0 | 0.00 | 0.01 | 0.01 | 79 | 1017.1 |
| 20260509000052 | 60 | 308 | 6.0 | 11.0 | 0.00 | 0.01 | 0.01 | 78 | 1017.0 |
| 20260508235543 | 60 | 313 | 8.0 | 11.0 | 0.00 | 0.01 | 0.01 | 78 | 1017.0 |
| 20260508235044 | 60 | 298 | 8.0 | 11.0 | 0.00 | 0.01 | 0.01 | 78 | 1017.1 |
| 20260508234556 | 61 | 315 | 8.0 | 11.0 | 0.00 | 0.01 | 0.01 | 77 | 1017.1 |